Chamiss Bay, British Columbia

12:27 PM PST on January 18, 2017 (GMT -0800)
Solander Island

Weather History for CWRU - November, 2013

Change the Weather History Date:

Friday, November 1, 2013

  Actual Average Record
Temperature  
Mean Temperature 48 °F -  
Max Temperature 51 °F - - ()
Min Temperature 45 °F - - ()
Degree Days  
Heating Degree Days 17    
Moisture  
Dew Point 46 °F    
Average Humidity 90    
Maximum Humidity 97    
Minimum Humidity 65    
Precipitation  
Precipitation 0.08 in - - ()
Sea Level Pressure  
Sea Level Pressure 30.08 in    
Wind  
Wind Speed 10 mph ()    
Max Wind Speed 20 mph    
Max Gust Speed 23 mph    
T = Trace of Precipitation, MM = Missing Value Source: Averaged Metar Reports

Daily Weather History Graph

Daily Weather History Graph

Search for Another Location

Airport or City:

Trip Planner

Search our weather history database for the weather conditions in past years. The results will help you decide how hot, cold, wet, or windy it might be!

Date:

Astronomy

Nov. 01, 2013 Rise Set
Actual Time 8:22 AM PDT 6:07 PM PDT
Civil Twilight 7:48 AM PDT 6:41 PM PDT
Nautical Twilight 7:09 AM PDT 7:19 PM PDT
Astronomical Twilight 6:32 AM PDT 7:57 PM PDT
Moon 6:11 AM PDT (11/1) 5:11 PM PDT (11/1)
Length of Visible Light 10h 53m
Length of Day
9h 45m
Waning Crescent, 4% of the Moon is Illuminated
Nov 1
Waning Crescent
Nov 3
New
Nov 9
First Quarter
Nov 17
Full
Nov 25
Last Quarter

Hourly Weather History & Observations

Time (PDT) Temp. Windchill Dew Point Humidity Pressure Visibility Wind Dir Wind Speed Gust Speed Precip Events Conditions
12:00 AM 51.6 °F - 50.9 °F 97% 30.17 in - South 16.1 mph - 0.02 in   Unknown
1:00 AM 50.9 °F - 50.2 °F 97% 30.18 in - SSW 13.8 mph - 0.02 in   Unknown
2:00 AM 50.7 °F - 50.0 °F 97% 30.19 in - NW 8.1 mph - N/A   Unknown
3:00 AM 50.9 °F - 50.2 °F 97% 30.17 in - North 4.6 mph - N/A   Unknown
4:00 AM 50.9 °F - 49.8 °F 96% 30.18 in - North 10.4 mph - N/A   Unknown
5:00 AM 51 °F - 49 °F 91% 30.17 in - North 10.4 mph - -  
5:00 AM 50.5 °F - 49.1 °F 95% 30.17 in - North 10.4 mph - N/A   Unknown
6:00 AM 50.5 °F - 48.9 °F 94% 30.17 in - North 11.5 mph - N/A   Unknown
7:00 AM 50.2 °F - 48.7 °F 95% 30.15 in - North 15.0 mph - N/A   Unknown
8:00 AM 50.0 °F - 48.2 °F 94% 30.17 in - NNE 10.4 mph - N/A   Unknown
9:00 AM 49.8 °F - 48.6 °F 95% 30.15 in - NNE 9.2 mph - N/A   Unknown
10:00 AM 49.5 °F - 47.5 °F 93% 30.16 in - NNE 6.9 mph - N/A   Unknown
11:00 AM 49 °F - 47 °F 92% 30.12 in - NE 13.8 mph - -  
11:00 AM 49.5 °F - 47.5 °F 93% 30.12 in - NE 13.8 mph - N/A   Unknown
12:00 PM 50.0 °F - 46.9 °F 89% 30.14 in - NE 5.8 mph - N/A   Unknown
1:00 PM 49.8 °F - 47.1 °F 90% 30.13 in - NW 2.3 mph - N/A   Unknown
2:00 PM 49.8 °F - 46.9 °F 90% 30.09 in - North 10.4 mph - N/A   Unknown
3:00 PM 49.5 °F - 46.4 °F 89% 30.07 in - NNE 10.4 mph - N/A   Unknown
4:00 PM 49.5 °F - 46.9 °F 91% 30.05 in - NE 8.1 mph - N/A   Unknown
5:00 PM 49 °F - 47 °F 89% 30.04 in - NNE 9.2 mph - -  
5:00 PM 49.5 °F - 46.8 °F 90% 30.04 in - NNE 9.2 mph - 0.02 in   Unknown
6:00 PM 49.5 °F - 38.1 °F 65% 29.97 in - ENE 12.7 mph - 0.02 in   Unknown
7:00 PM 49.1 °F - 37.8 °F 65% 29.94 in - ENE 16.1 mph 23.0 mph N/A   Unknown
8:00 PM 47.5 °F - 39.7 °F 75% 29.92 in - NE 15.0 mph 21.9 mph N/A   Unknown
9:00 PM 45.7 °F 38.0 °F 41.5 °F 85% 29.89 in - NE 19.6 mph - 0.02 in   Unknown
10:00 PM 45.3 °F 38.4 °F 42.3 °F 89% 29.88 in - NE 16.1 mph - 0.02 in   Unknown
11:00 PM 45 °F - 43 °F 90% 29.86 in - NE 12.7 mph - -  
11:00 PM 45.3 °F 39.3 °F 43.0 °F 92% 29.86 in - NE 12.7 mph - 0.02 in   Unknown